EW7235 Weather Reports


time (UTC)temp
F
wind
direction
speed
knots
gust
knots
rain 1hr
in
rain 24hr
in
rain mn
in
humidity
%
barometer
mb
20260507115034 38 247 4.3 7.0 0.00 0.00 0.00 83 1011.3
20260507114626 38 254 3.5 7.0 0.00 0.00 0.00 83 1011.3
20260507114035 37 236 3.5 7.0 0.00 0.00 0.00 83 1011.3
20260507113532 37 255 4.3 7.0 0.00 0.00 0.00 83 1011.4
20260507113048 37 241 5.2 7.0 0.00 0.00 0.00 83 1011.4
20260507112531 37 245 4.3 7.0 0.00 0.00 0.00 83 1011.4
20260507112033 38 256 5.2 9.6 0.00 0.00 0.00 82 1011.4
20260507111550 38 250 5.2 9.6 0.00 0.00 0.00 82 1011.4
20260507111031 38 248 7.0 10.4 0.00 0.00 0.00 82 1011.4
20260507110534 38 247 7.0 10.4 0.00 0.00 0.00 81 1011.6
20260507110046 38 243 5.2 8.7 0.00 0.00 0.00 81 1011.8
20260507105533 38 240 6.1 8.7 0.00 0.00 0.00 81 1011.7
20260507105032 38 236 5.2 7.8 0.00 0.00 0.00 81 1011.7
20260507104542 38 224 5.2 8.7 0.00 0.00 0.00 81 1011.8
20260507104031 38 221 5.2 9.6 0.00 0.00 0.00 80 1011.9
20260507103534 39 235 5.2 10.4 0.00 0.00 0.00 80 1011.9
20260507103042 39 236 7.0 10.4 0.00 0.00 0.00 79 1011.9
20260507102535 39 213 6.1 10.4 0.00 0.00 0.00 79 1011.8
20260507102038 39 209 6.1 9.6 0.00 0.00 0.00 78 1011.9
20260507101547 39 226 5.2 13.0 0.00 0.00 0.00 78 1012.0
20260507101034 40 229 8.7 13.0 0.00 0.00 0.00 77 1012.0
20260507100534 40 226 7.8 12.2 0.00 0.00 0.00 77 1012.1
20260507100050 40 229 7.0 12.2 0.00 0.00 0.00 77 1012.0
20260507095533 40 216 7.8 10.4 0.00 0.00 0.00 77 1012.3
20260507095033 40 238 5.2 12.2 0.00 0.00 0.00 77 1012.3
20260507094547 40 229 6.1 12.2 0.00 0.00 0.00 77 1012.3
20260507094030 40 214 7.8 13.9 0.00 0.00 0.00 77 1012.4
20260507093531 40 225 9.6 13.9 0.00 0.00 0.00 76 1012.4
20260507093048 40 229 8.7 13.0 0.00 0.00 0.00 76 1012.5
20260507092530 40 237 7.0 13.0 0.00 0.00 0.00 76 1012.5
20260507092029 41 228 7.8 13.0 0.00 0.00 0.00 76 1012.7
20260507091546 41 221 8.7 13.0 0.00 0.00 0.00 76 1012.5
20260507091034 41 227 7.8 12.2 0.00 0.00 0.00 76 1012.7
20260507090538 41 227 7.8 13.9 0.00 0.00 0.00 76 1012.6
20260507090048 41 217 7.8 15.6 0.00 0.00 0.00 76 1012.8
20260507085536 41 229 10.4 15.6 0.00 0.00 0.00 76 1012.9
20260507085034 41 244 10.4 15.6 0.00 0.00 0.00 77 1013.0
20260507084553 41 228 8.7 12.2 0.00 0.00 0.00 77 1013.0
20260507084033 41 232 7.8 13.0 0.00 0.00 0.00 77 1013.2
20260507083535 41 233 7.8 13.0 0.00 0.00 0.00 77 1013.3
20260507083051 41 221 9.6 14.8 0.00 0.00 0.00 77 1013.4
20260507082535 41 217 10.4 14.8 0.00 0.00 0.00 77 1013.5
20260507082037 41 232 9.6 13.9 0.00 0.00 0.00 78 1013.4
20260507081547 41 235 10.4 14.8 0.00 0.00 0.00 78 1013.5
20260507081037 41 240 10.4 14.8 0.00 0.00 0.00 78 1013.6
20260507080535 41 238 9.6 15.6 0.00 0.00 0.00 78 1013.7
20260507080053 41 238 11.3 15.6 0.00 0.00 0.00 78 1013.8
20260507075538 41 248 8.7 15.6 0.00 0.00 0.00 78 1013.8
20260507075034 41 234 10.4 15.6 0.00 0.00 0.00 78 1014.0
20260507074543 41 232 7.0 13.0 0.00 0.00 0.00 78 1014.1
20260507074033 41 213 8.7 13.0 0.00 0.00 0.00 78 1014.0
20260507073534 41 236 8.7 12.2 0.00 0.00 0.00 79 1014.1
20260507073048 41 234 8.7 12.2 0.00 0.00 0.00 79 1014.1
20260507072534 41 224 7.8 13.9 0.00 0.00 0.00 80 1014.2
20260507072034 41 234 7.8 14.8 0.00 0.00 0.00 80 1014.3
20260507071550 41 223 8.7 14.8 0.00 0.00 0.00 80 1014.3
20260507071038 41 236 8.7 13.0 0.00 0.00 0.00 80 1014.3
20260507070533 41 210 8.7 13.0 0.00 0.00 0.00 80 1014.2
20260507070048 41 229 7.8 10.4 0.00 0.00 0.00 80 1014.3
20260507065533 41 226 6.1 12.2 0.00 0.00 0.00 80 1014.3
20260507065034 41 233 7.8 12.2 0.00 0.00 0.00 80 1014.3
20260507064544 41 236 7.0 12.2 0.00 0.00 0.00 79 1014.2
20260507064031 42 221 7.0 13.0 0.00 0.00 0.00 79 1014.4
20260507063533 42 244 8.7 13.0 0.00 0.00 0.00 79 1014.5
20260507063045 42 233 8.7 13.0 0.00 0.00 0.00 79 1014.6
20260507062535 42 238 8.7 13.0 0.00 0.00 0.00 78 1014.5
20260507062034 42 216 8.7 13.0 0.00 0.00 0.00 78 1014.6
20260507061546 42 233 7.8 13.9 0.00 0.00 0.00 78 1014.6
20260507061033 42 217 7.8 14.8 0.00 0.00 0.00 77 1014.7
20260507060533 43 233 9.6 14.8 0.00 0.00 0.00 77 1014.7
20260507060051 43 234 11.3 15.6 0.00 0.00 0.00 76 1014.7
20260507055532 43 227 10.4 18.2 0.00 0.00 0.00 76 1014.6
20260507055034 43 213 12.2 18.2 0.00 0.00 0.00 76 1014.7
20260507054547 43 228 12.2 18.2 0.00 0.00 0.00 75 1014.9
20260507054031 43 229 10.4 17.4 0.00 0.00 0.00 75 1014.7
20260507053534 44 229 9.6 17.4 0.00 0.00 0.00 75 1014.7
20260507053045 44 209 9.6 17.4 0.00 0.00 0.00 74 1014.8
20260507052534 44 222 10.4 17.4 0.00 0.00 0.00 74 1014.8
20260507052033 44 218 10.4 17.4 0.00 0.00 0.00 74 1015.0
20260507051552 44 209 9.6 18.2 0.00 0.00 0.00 73 1014.9
20260507051030 44 213 10.4 18.2 0.00 0.00 0.00 73 1015.0
20260507050530 45 203 11.3 18.2 0.00 0.00 0.00 72 1014.9
20260507050046 45 227 12.2 18.2 0.00 0.00 0.00 72 1015.2
20260507045531 45 233 11.3 19.1 0.00 0.00 0.00 72 1015.2
20260507045034 45 204 12.2 19.1 0.00 0.00 0.00 72 1015.1
20260507044549 45 230 12.2 16.5 0.00 0.00 0.00 72 1015.1
20260507044035 45 218 12.2 16.5 0.00 0.00 0.00 72 1015.2
20260507043534 44 211 11.3 16.5 0.00 0.00 0.00 72 1015.4
20260507043047 44 227 9.6 15.6 0.00 0.00 0.00 72 1015.5
20260507042537 45 215 10.4 15.6 0.00 0.00 0.00 71 1015.5
20260507042034 45 206 9.6 16.5 0.00 0.00 0.00 70 1015.6
20260507041540 45 221 10.4 16.5 0.00 0.00 0.00 70 1015.6
20260507041034 45 219 10.4 16.5 0.00 0.00 0.00 69 1015.7
20260507040533 45 223 9.6 16.5 0.00 0.00 0.00 68 1015.6
20260507040053 45 219 9.6 16.5 0.00 0.00 0.00 66 1015.7
20260507035534 45 217 8.7 13.0 0.00 0.00 0.00 65 1015.7
20260507035031 45 230 8.7 14.8 0.00 0.00 0.00 64 1015.8
20260507034551 46 236 8.7 14.8 0.00 0.00 0.00 63 1015.7
20260507034034 46 215 9.6 13.9 0.00 0.00 0.00 62 1015.7
20260507033534 46 237 9.6 13.9 0.00 0.00 0.00 62 1015.8
20260507033046 46 209 8.7 14.8 0.00 0.00 0.00 61 1015.7
20260507032534 46 206 9.6 14.8 0.00 0.00 0.00 60 1015.7
20260507032033 46 221 7.8 12.2 0.00 0.00 0.00 59 1015.7
20260507031548 46 225 7.8 12.2 0.00 0.00 0.00 58 1015.8
20260507031036 46 214 8.7 12.2 0.00 0.00 0.00 57 1015.8
20260507030534 47 227 8.7 12.2 0.00 0.00 0.00 56 1015.7
20260507030043 47 224 7.8 12.2 0.00 0.00 0.00 55 1015.9
20260507025533 47 232 7.8 12.2 0.00 0.00 0.00 54 1015.8
20260507025033 47 217 7.0 10.4 0.00 0.00 0.00 53 1015.9
20260507024548 47 220 7.0 9.6 0.00 0.00 0.00 51 1015.9
20260507024035 47 212 6.1 9.6 0.00 0.00 0.00 50 1015.9
20260507023536 47 210 6.1 9.6 0.00 0.00 0.00 49 1015.8
20260507023051 48 217 6.1 8.7 0.00 0.00 0.00 48 1015.7
20260507022533 48 213 6.1 8.7 0.00 0.00 0.00 47 1015.7
20260507022034 49 220 5.2 7.0 0.00 0.00 0.00 46 1015.6
20260507021547 49 220 5.2 7.8 0.00 0.00 0.00 45 1015.6
20260507021039 49 224 5.2 8.7 0.00 0.00 0.00 45 1015.6
20260507020535 49 221 6.1 10.4 0.00 0.00 0.00 45 1015.7
20260507020106 50 228 7.8 10.4 0.00 0.00 0.00 44 1015.6
20260507015539 50 219 7.0 9.6 0.00 0.00 0.00 44 1015.6
20260507015036 50 227 5.2 7.8 0.00 0.00 0.00 44 1015.6
20260507014546 51 225 4.3 9.6 0.00 0.00 0.00 43 1015.6
20260507014036 51 222 5.2 11.3 0.00 0.00 0.00 42 1015.6
20260507013535 51 223 6.1 11.3 0.00 0.00 0.00 41 1015.6
20260507013054 52 222 6.1 8.7 0.00 0.00 0.00 41 1015.6
20260507012535 52 208 6.1 9.6 0.00 0.00 0.00 41 1015.6
20260507012036 52 223 6.1 9.6 0.00 0.00 0.00 40 1015.6
20260507011546 52 238 4.3 8.7 0.00 0.00 0.00 40 1015.7
20260507011039 52 252 4.3 9.6 0.00 0.00 0.00 40 1015.7
20260507010535 53 236 6.1 9.6 0.00 0.00 0.00 39 1015.7
20260507010048 53 237 7.0 10.4 0.00 0.00 0.00 38 1015.6
20260507005537 53 239 7.0 12.2 0.00 0.00 0.00 37 1015.6
20260507005039 53 238 7.0 14.8 0.00 0.00 0.00 36 1015.7
20260507004600 54 240 9.6 14.8 0.00 0.00 0.00 35 1015.7
20260507004036 54 243 9.6 14.8 0.00 0.00 0.00 35 1015.7
20260507003536 54 245 8.7 14.8 0.00 0.00 0.00 33 1015.7
20260507003051 55 251 9.6 14.8 0.00 0.00 0.00 34 1015.7
20260507002536 55 254 8.7 12.2 0.00 0.00 0.00 33 1015.8
20260507002036 55 235 7.0 13.9 0.00 0.00 0.00 35 1015.9
20260507001551 54 249 8.7 15.6 0.00 0.00 0.00 34 1015.9
20260507001035 54 245 11.3 15.6 0.00 0.00 0.00 33 1015.9
20260507000536 54 242 11.3 15.6 0.00 0.00 0.00 34 1016.0
20260507000051 55 237 13.0 15.6 0.00 0.00 0.00 33 1016.0
20260506235536 55 238 12.2 15.6 0.00 0.00 0.00 34 1016.0
20260506235038 55 248 8.7 15.6 0.00 0.00 0.00 34 1016.0
20260506234550 54 259 11.3 19.1 0.00 0.00 0.00 32 1016.1
20260506234036 55 258 13.9 19.1 0.00 0.00 0.00 33 1016.1
20260506233536 55 243 13.0 16.5 0.00 0.00 0.00 35 1016.1
20260506233101 54 229 8.7 13.9 0.00 0.00 0.00 34 1016.3
20260506232535 53 267 9.6 13.0 0.00 0.00 0.00 34 1016.1
20260506232035 53 267 8.7 13.0 0.00 0.00 0.00 34 1016.3
20260506231554 53 267 8.7 17.4 0.00 0.00 0.00 37 1016.3
20260506231037 54 242 11.3 17.4 0.00 0.00 0.00 33 1016.1
20260506230533 55 248 12.2 17.4 0.00 0.00 0.00 34 1016.1
20260506230049 55 244 12.2 15.6 0.00 0.00 0.00 33 1016.0
20260506225534 54 254 12.2 19.1 0.00 0.02 0.00 36 1016.3
20260506225034 54 255 11.3 19.1 0.00 0.02 0.00 33 1016.1
20260506224552 55 261 11.3 23.5 0.00 0.02 0.00 31 1016.3
20260506224033 55 263 13.0 24.3 0.00 0.02 0.00 30 1016.1
20260506223533 55 261 13.9 24.3 0.00 0.02 0.00 33 1016.3
20260506223048 54 282 8.7 13.9 0.00 0.02 0.00 31 1016.4
20260506222534 54 271 9.6 17.4 0.00 0.02 0.00 30 1016.5
20260506222034 54 280 9.6 17.4 0.00 0.02 0.00 32 1016.6
20260506221548 54 269 7.0 17.4 0.00 0.02 0.00 32 1016.5
20260506221033 54 248 8.7 19.1 0.00 0.02 0.00 34 1016.6
20260506220533 54 248 13.9 19.1 0.00 0.02 0.00 32 1016.5
20260506220049 54 267 9.6 13.9 0.00 0.02 0.00 34 1016.8
20260506215531 53 254 7.8 14.8 0.00 0.02 0.00 36 1016.8
20260506215036 53 251 9.6 18.2 0.00 0.02 0.00 37 1017.0
20260506214552 53 240 13.0 18.2 0.00 0.02 0.00 35 1017.1
20260506214034 54 225 11.3 17.4 0.00 0.02 0.00 36 1017.2
20260506213534 54 208 10.4 19.1 0.00 0.02 0.00 34 1017.1
20260506213058 54 261 13.9 19.1 0.00 0.02 0.00 34 1017.2
20260506212534 54 271 5.2 16.5 0.00 0.02 0.00 37 1017.1
20260506212034 53 218 1.7 8.7 0.00 0.02 0.00 37 1017.4
20260506211543 52 324 3.5 8.7 0.00 0.02 0.00 37 1017.3
20260506211034 52 250 5.2 14.8 0.00 0.02 0.00 36 1017.5
20260506210534 53 223 7.0 14.8 0.00 0.02 0.00 35 1017.6
20260506210043 53 229 10.4 14.8 0.00 0.02 0.00 35 1017.6
20260506205533 54 248 10.4 14.8 0.00 0.02 0.00 37 1017.6
20260506205033 54 173 6.1 12.2 0.00 0.02 0.00 35 1017.6
20260506204546 53 215 5.2 11.3 0.00 0.02 0.00 36 1017.8
20260506204033 53 213 7.0 11.3 0.00 0.02 0.00 36 1018.0
20260506203533 53 218 6.1 15.6 0.00 0.02 0.00 35 1018.1
20260506203045 54 218 11.3 15.6 0.00 0.02 0.00 35 1018.1
20260506202535 54 264 7.0 17.4 0.00 0.02 0.00 37 1018.1
20260506202031 52 223 8.7 17.4 0.00 0.02 0.00 35 1018.1
20260506201545 52 259 7.8 17.4 0.00 0.02 0.00 34 1018.1
20260506201033 52 232 5.2 13.9 0.00 0.02 0.00 36 1018.3
20260506200533 51 287 8.7 13.9 0.00 0.02 0.00 34 1018.2
20260506200047 52 290 10.4 13.9 0.00 0.02 0.00 35 1018.1
20260506195534 51 209 2.6 12.2 0.00 0.02 0.00 39 1018.3
20260506195037 51 239 7.8 12.2 0.00 0.02 0.00 35 1018.3
20260506194547 51 300 4.3 14.8 0.00 0.02 0.00 35 1018.3
20260506194034 52 265 7.0 17.4 0.00 0.02 0.00 33 1018.4
20260506193536 52 246 12.2 17.4 0.00 0.02 0.00 36 1018.4
20260506193040 52 232 7.0 13.0 0.00 0.02 0.00 37 1018.4
20260506192535 52 234 4.3 13.9 0.00 0.02 0.00 36 1018.5
20260506192034 51 279 7.8 13.9 0.00 0.02 0.00 36 1018.5
20260506191543 52 261 9.6 13.9 0.00 0.02 0.00 36 1018.5
20260506191034 51 242 4.3 14.8 0.00 0.02 0.00 35 1018.7
20260506190536 51 179 3.5 14.8 0.00 0.02 0.00 36 1018.7
20260506190048 51 248 9.6 14.8 0.00 0.02 0.00 37 1018.8
20260506185534 50 267 3.5 8.7 0.00 0.02 0.00 39 1018.7
20260506185034 50 282 2.6 7.8 0.00 0.02 0.00 40 1018.8
20260506184551 50 217 4.3 12.2 0.00 0.02 0.00 40 1019.1
20260506184034 50 248 6.1 12.2 0.00 0.02 0.00 38 1019.2
20260506183533 50 288 6.1 14.8 0.00 0.02 0.00 41 1019.0
20260506183056 50 252 7.0 14.8 0.00 0.02 0.00 41 1019.3
20260506182533 50 240 4.3 12.2 0.00 0.02 0.00 42 1019.2
20260506182034 49 256 6.1 12.2 0.00 0.02 0.00 38 1019.5
20260506181609 49 205 0.9 7.0 0.00 0.02 0.00 42 1019.5
20260506181034 49 84 3.5 9.6 0.00 0.02 0.00 39 1019.6
20260506180534 50 271 2.6 9.6 0.00 0.02 0.00 44 1019.7
20260506180051 49 231 3.5 12.2 0.00 0.02 0.00 44 1019.8
20260506175533 49 225 7.0 12.2 0.00 0.02 0.00 44 1019.9
20260506175037 49 204 7.8 12.2 0.00 0.02 0.00 43 1019.9
20260506174545 49 244 2.6 10.4 0.00 0.02 0.00 42 1019.9
20260506174034 49 310 1.7 11.3 0.00 0.02 0.00 44 1020.0
20260506173535 48 280 6.1 11.3 0.00 0.02 0.00 42 1020.0
20260506173057 48 226 7.0 11.3 0.00 0.02 0.00 43 1020.0
20260506172536 49 257 6.1 10.4 0.00 0.02 0.00 43 1019.9
20260506172035 48 38 1.7 9.6 0.00 0.02 0.00 46 1020.0
20260506171546 48 265 6.1 9.6 0.00 0.02 0.00 43 1020.0
20260506171034 48 275 5.2 7.8 0.00 0.02 0.00 44 1020.0
20260506170534 48 0 4.3 7.0 0.00 0.02 0.00 45 1020.0
20260506170052 48 268 2.6 5.2 0.00 0.02 0.00 45 1020.0
20260506165535 47 0 0.9 7.0 0.00 0.04 0.00 45 1020.1
20260506165035 47 0 0.9 11.3 0.00 0.04 0.00 45 1020.0
20260506164544 47 249 2.6 11.3 0.00 0.04 0.00 45 1020.0
20260506164034 47 277 7.0 11.3 0.00 0.04 0.00 44 1020.0
20260506163534 47 295 3.5 7.8 0.00 0.04 0.00 46 1020.0
20260506163050 47 282 6.1 7.8 0.00 0.04 0.00 44 1020.0
20260506162531 47 307 2.6 6.1 0.00 0.04 0.00 46 1020.0
20260506162034 47 41 2.6 7.0 0.00 0.04 0.00 44 1019.9
20260506161548 47 360 0.9 11.3 0.00 0.04 0.00 46 1020.0
20260506161033 47 268 4.3 11.3 0.00 0.04 0.00 47 1019.9
20260506160533 47 273 5.2 9.6 0.00 0.04 0.00 46 1020.0
20260506160054 47 296 1.7 9.6 0.00 0.04 0.00 49 1019.9
20260506155534 46 49 1.7 9.6 0.00 0.05 0.00 49 1019.9
20260506155034 46 16 5.2 9.6 0.00 0.05 0.00 51 1019.9
20260506154546 47 34 4.3 9.6 0.00 0.05 0.00 47 1019.8
20260506154034 47 16 3.5 10.4 0.00 0.05 0.00 46 1019.8
20260506153534 46 286 7.0 10.4 0.00 0.05 0.00 47 1019.7
20260506153106 47 292 7.8 10.4 0.00 0.05 0.00 46 1019.7
20260506152534 47 270 0.9 8.7 0.00 0.05 0.00 47 1019.7
20260506152034 46 39 4.3 9.6 0.00 0.05 0.00 48 1019.8
20260506151544 46 342 7.8 9.6 0.00 0.05 0.00 46 1019.7
20260506151038 47 55 0.9 5.2 0.00 0.05 0.00 49 1019.8
20260506150534 46 0 2.6 9.6 0.00 0.05 0.00 47 1019.9
20260506150058 46 20 5.2 9.6 0.00 0.05 0.00 49 1019.8
20260506145535 46 355 3.5 7.8 0.00 0.06 0.00 49 1019.9
20260506145034 46 316 1.7 5.2 0.00 0.06 0.00 48 1019.9
20260506144554 46 0 1.7 5.2 0.00 0.06 0.00 47 1020.0
20260506144033 46 267 0.9 7.8 0.00 0.06 0.00 47 1020.0
20260506143534 46 287 3.5 7.8 0.00 0.06 0.00 51 1020.0
20260506143048 46 318 2.6 7.0 0.00 0.06 0.00 48 1020.0
20260506142534 46 284 0.9 7.8 0.00 0.06 0.00 48 1020.0
20260506142034 45 38 4.3 7.8 0.00 0.06 0.00 47 1020.0
20260506141542 46 326 2.6 7.0 0.00 0.06 0.00 48 1020.0
20260506141034 46 348 0.0 2.6 0.00 0.06 0.00 49 1020.0
20260506140537 46 0 0.9 2.6 0.00 0.06 0.00 49 1019.9
20260506140043 46 89 0.9 4.3 0.00 0.06 0.00 52 1019.8
20260506135533 45 0 0.0 5.2 0.00 0.09 0.00 52 1019.9
20260506135033 45 113 2.6 5.2 0.00 0.09 0.00 55 1019.7
20260506134549 44 82 1.7 4.3 0.00 0.09 0.00 56 1019.6
20260506134036 44 74 1.7 6.1 0.00 0.09 0.00 60 1019.8
20260506133535 43 61 2.6 6.1 0.00 0.09 0.00 59 1019.6
20260506133048 43 86 3.5 6.1 0.00 0.09 0.00 61 1019.5
20260506132536 43 94 2.6 3.5 0.00 0.09 0.00 63 1019.4
20260506132031 43 108 0.9 2.6 0.00 0.09 0.00 66 1019.6
20260506131554 43 151 0.9 1.7 0.00 0.09 0.00 68 1019.5
20260506131033 42 110 0.0 0.9 0.00 0.09 0.00 70 1019.4
20260506130531 41 0 0.0 1.7 0.00 0.09 0.00 71 1019.4
20260506130048 40 0 0.0 2.6 0.00 0.09 0.00 69 1019.3
20260506125534 40 59 1.7 2.6 0.00 0.10 0.00 69 1019.3
20260506125034 39 60 1.7 3.5 0.00 0.10 0.00 69 1019.3
20260506124544 39 57 1.7 3.5 0.00 0.10 0.00 70 1018.9
20260506124035 39 57 2.6 3.5 0.00 0.10 0.00 72 1018.9
20260506123536 39 46 1.7 2.6 0.00 0.10 0.00 74 1018.8
20260506123043 39 65 0.9 2.6 0.00 0.10 0.00 75 1018.8
20260506122531 38 57 1.7 2.6 0.00 0.10 0.00 74 1018.7
20260506122034 38 34 0.9 1.7 0.00 0.10 0.00 76 1018.6
20260506121548 38 34 0.9 1.7 0.00 0.10 0.00 76 1018.7
20260506121035 38 34 0.9 5.2 0.00 0.10 0.00 75 1018.7
20260506120535 39 34 0.9 5.2 0.00 0.10 0.00 73 1018.7
20260506120047 39 45 2.6 5.2 0.00 0.10 0.00 70 1018.6
20260506115534 38 39 2.6 4.3 0.00 0.10 0.00 73 1018.5